Location: Albany
(35.0170°S, 117.8920°E)
Time: 18:48:47
(UTC+08:00)

SR - Pass Details

Date: 26 January 2021
Orbit: 573 x 882 km, 66.7° (Epoch: 25 February)

Event Time Altitude Azimuth Distance (km) Brightness Sun altitude
Rises 01:24:29 0° 205° (SSW) 2,860 ? -34.1°
Reaches altitude 10° 01:26:46 10° 202° (SSW) 1,930 ? -34.0°
Enters shadow 01:27:32 15° 200° (SSW) 1,626 ? -33.9°
